Date String (YYYY-MM-DD hh:mm:ss) UTC,Instrument flags,Ambient pressure (hPa),Sample flow (lpm),Bypass flow (lpm),Sample temperature (°C),Ambient temperature (°C),ASC tube jacket temperature (°C),LED temperature (°C),Box temperature (°C),Sample RH (%),Span deviation,Mass concentration (μg/m³),Mass concentration (μg/m³),Mass concentration (μg/m³)
DateTimeUTC,F1_M11,P_M11,Q1_M11,Q2_M11,T1_M11,T2_M11,T3_M11,T4_M11,T5_M11,U1_M11,ZSPAN_M11,X0_M11,X2_M11,X1_M11
2021-10-12 22:00:00,,0813.5,5.00,0.00,28.9,28.0,00.0,38.0,30.6,18.6,0001.5,0013.41,0006.88,0005.60
2021-10-12 22:01:00,,0813.6,5.00,0.00,28.9,28.0,00.0,38.0,30.6,18.5,0001.8,0013.55,0006.90,0005.59
2021-10-12 22:02:00,,0813.6,5.00,0.00,28.9,28.0,00.0,38.0,30.6,18.8,0001.7,0013.70,0006.90,0005.58
2021-10-12 22:03:00,,0813.8,5.01,0.00,28.9,28.0,00.0,38.0,30.6,19.0,0001.7,0013.46,0006.88,0005.56
2021-10-12 22:04:00,,0814.0,5.01,0.00,28.9,28.0,00.0,38.0,30.7,18.9,0001.9,0013.12,0006.88,0005.56
2021-10-12 22:05:00,,0813.9,5.00,0.00,28.9,28.0,00.0,38.0,30.7,18.9,0001.5,0012.77,0006.88,0005.55
2021-10-12 22:06:00,,0814.2,4.99,0.00,28.9,28.1,00.0,38.0,30.7,18.7,0001.5,0012.38,0006.86,0005.55
2021-10-12 22:07:00,,0814.1,5.01,0.00,28.9,28.1,00.0,38.0,30.7,18.4,0001.6,0012.20,0006.82,0005.55
2021-10-12 22:08:00,,0814.2,5.00,0.00,28.9,28.0,00.0,38.0,30.7,18.2,0001.3,0012.03,0006.74,0005.52
2021-10-12 22:09:00,,0814.0,5.00,0.00,28.9,28.0,00.0,38.0,30.7,17.8,0000.7,0011.87,0006.70,0005.49
2021-10-12 22:10:00,,0814.1,5.00,0.00,28.9,28.0,00.0,38.0,30.7,18.2,0000.8,0012.18,0006.68,0005.47
2021-10-12 22:11:00,,0814.1,4.99,0.00,28.9,28.0,00.0,38.0,30.7,18.5,0000.8,0012.59,0006.62,0005.45
2021-10-12 22:12:00,,0814.2,5.00,0.00,28.9,28.0,00.0,38.0,30.6,18.5,0000.9,0012.71,0006.62,0005.44
2021-10-12 22:13:00,,0814.0,5.00,0.00,28.9,28.0,00.0,38.0,30.6,18.7,0000.7,0012.78,0006.60,0005.45
2021-10-12 22:14:00,,0814.1,5.01,0.00,28.9,28.1,00.0,38.0,30.7,18.8,0000.6,0013.22,0006.56,0005.45
2021-10-12 22:15:00,,0814.2,5.00,0.00,28.9,28.1,00.0,38.0,30.7,18.6,0000.6,0013.17,0006.52,0005.44
2021-10-12 22:16:00,,0814.2,5.00,0.00,28.9,28.1,00.0,38.0,30.7,18.1,0000.8,0012.99,0006.48,0005.42
2021-10-12 22:17:00,,0813.7,4.99,0.00,28.9,28.1,00.0,38.0,30.7,17.9,0000.8,0013.10,0006.45,0005.38
2021-10-12 22:18:00,,0813.6,4.99,0.00,28.9,28.1,00.0,38.0,30.7,17.9,0000.8,0013.02,0006.42,0005.35
2021-10-12 22:19:00,,0813.6,5.01,0.00,29.0,28.1,00.0,38.0,30.7,18.3,0001.0,0013.22,0006.44,0005.33
2021-10-12 22:20:00,,0813.6,4.99,0.00,29.0,28.1,00.0,38.0,30.7,18.3,0001.2,0013.66,0006.49,0005.33
2021-10-12 22:21:00,,0813.5,5.01,0.00,29.0,28.1,00.0,38.0,30.8,18.3,0001.2,0013.65,0006.51,0005.32
2021-10-12 22:22:00,,0813.5,4.99,0.00,29.0,28.1,00.0,38.0,30.8,18.2,0000.9,0013.22,0006.46,0005.28
2021-10-12 22:23:00,,0813.6,5.00,0.00,29.0,28.1,00.0,38.0,30.8,17.9,0000.6,0013.14,0006.39,0005.25
2021-10-12 22:24:00,,0813.5,4.99,0.00,29.0,28.2,00.0,38.1,30.8,17.7,0000.6,0012.81,0006.32,0005.21
2021-10-12 22:25:00,,0813.5,5.00,0.00,29.0,28.2,00.0,38.1,30.8,17.8,0000.8,0012.30,0006.32,0005.18
2021-10-12 22:26:00,,0813.4,5.01,0.00,29.0,28.2,00.0,38.1,30.8,18.1,0000.8,0012.21,0006.29,0005.17
2021-10-12 22:27:00,,0813.2,5.00,0.00,29.0,28.2,00.0,38.1,30.8,17.8,0000.6,0012.21,0006.28,0005.16
2021-10-12 22:28:00,,0813.1,4.99,0.00,29.0,28.2,00.0,38.1,30.8,17.9,0000.5,0012.03,0006.26,0005.15
2021-10-12 22:29:00,,0813.1,5.00,0.00,29.0,28.2,00.0,38.1,30.8,18.2,0000.3,0012.07,0006.28,0005.16
2021-10-12 22:30:00,,0812.9,4.99,0.00,29.0,28.2,00.0,38.1,30.8,17.9,-000.1,0011.98,0006.29,0005.19
2021-10-12 22:31:00,,0812.7,5.00,0.00,29.0,28.2,00.0,38.1,30.8,18.1,0000.1,0011.64,0006.27,0005.21
2021-10-12 22:32:00,,0812.8,5.02,0.00,29.0,28.2,00.0,38.1,30.8,17.8,0000.4,0011.28,0006.26,0005.22
2021-10-12 22:33:00,,0812.8,5.00,0.00,29.0,28.2,00.0,38.1,30.8,17.5,0000.5,0011.28,0006.23,0005.22
2021-10-12 22:34:00,,0812.9,5.01,0.00,29.1,28.2,00.0,38.1,30.8,17.3,0000.5,0010.97,0006.15,0005.20
2021-10-12 22:35:00,,0812.9,5.00,0.00,29.1,28.2,00.0,38.1,30.8,17.2,0000.7,0010.92,0006.13,0005.20
2021-10-12 22:36:00,,0812.9,4.99,0.00,29.1,28.2,00.0,38.1,30.9,17.6,0000.6,0010.92,0006.13,0005.20
2021-10-12 22:37:00,,0812.9,5.01,0.00,29.1,28.2,00.0,38.1,30.8,17.9,0000.7,0011.19,0006.16,0005.19
2021-10-12 22:38:00,,0812.9,5.00,0.00,29.1,28.2,00.0,38.1,30.8,17.8,0001.0,0011.22,0006.16,0005.17
2021-10-12 22:39:00,,0813.1,5.00,0.00,29.1,28.2,00.0,38.1,30.8,17.7,0001.0,0011.19,0006.15,0005.16
2021-10-12 22:40:00,,0813.0,4.99,0.00,29.1,28.2,00.0,38.2,30.8,17.9,0001.3,0011.37,0006.16,0005.16
2021-10-12 22:41:00,,0813.2,5.01,0.00,29.1,28.2,00.0,38.2,30.9,17.8,0001.5,0011.47,0006.14,0005.13
2021-10-12 22:42:00,,0812.9,5.00,0.00,29.1,28.2,00.0,38.1,30.8,18.0,0001.4,0011.62,0006.15,0005.12
2021-10-12 22:43:00,,0812.9,4.99,0.00,29.1,28.2,00.0,38.2,30.9,18.0,0001.0,0011.60,0006.14,0005.11
2021-10-12 22:44:00,,0812.9,5.00,0.00,29.1,28.2,00.0,38.2,30.9,17.8,0000.7,0011.42,0006.17,0005.15
2021-10-12 22:45:00,,0812.9,5.01,0.00,29.1,28.2,00.0,38.2,30.9,17.9,0001.0,0011.36,0006.22,0005.17
2021-10-12 22:46:00,,0812.9,5.00,0.00,29.1,28.3,00.0,38.2,30.9,17.8,0001.0,0011.40,0006.26,0005.18
2021-10-12 22:47:00,,0813.0,4.99,0.00,29.1,28.2,00.0,38.2,30.9,17.5,0001.2,0011.35,0006.24,0005.18
2021-10-12 22:48:00,,0813.0,5.00,0.00,29.1,28.2,00.0,38.2,30.9,17.7,0001.0,0011.05,0006.19,0005.17
2021-10-12 22:49:00,,0813.1,5.01,0.00,29.1,28.3,00.0,38.2,30.9,17.8,0001.2,0010.97,0006.17,0005.19
2021-10-12 22:50:00,,0813.2,4.99,0.00,29.1,28.3,00.0,38.2,30.9,17.5,0001.3,0012.06,0006.17,0005.20
2021-10-12 22:51:00,,0813.1,5.00,0.00,29.1,28.3,00.0,38.2,30.9,17.7,0001.2,0012.20,0006.17,0005.19
2021-10-12 22:52:00,,0813.1,5.00,0.00,29.1,28.3,00.0,38.2,30.9,17.1,0001.1,0012.14,0006.13,0005.17
2021-10-12 22:53:00,,0813.0,5.01,0.00,29.1,28.3,00.0,38.2,30.9,17.3,0001.4,0011.97,0006.07,0005.15
2021-10-12 22:54:00,,0812.9,5.00,0.00,29.1,28.3,00.0,38.2,30.9,17.5,0001.7,0011.72,0005.97,0005.10
2021-10-12 22:55:00,,0812.8,5.01,0.00,29.1,28.3,00.0,38.2,30.9,17.6,0002.1,0011.57,0005.87,0005.04
2021-10-12 22:56:00,,0812.7,4.99,0.00,29.1,28.3,00.0,38.2,30.9,17.5,0002.3,0011.53,0005.84,0005.01
2021-10-12 22:57:00,,0812.7,5.00,0.00,29.1,28.3,00.0,38.2,30.9,17.4,0002.3,0011.64,0005.77,0004.97
2021-10-12 22:58:00,,0812.6,4.99,0.00,29.1,28.2,00.0,38.2,30.8,17.4,0002.4,0012.12,0005.74,0004.95
2021-10-12 22:59:00,,0812.6,5.00,0.00,29.1,28.2,00.0,38.2,30.8,17.5,0002.4,0012.24,0005.74,0004.93
